Regional Weather Roundup
Issued by NWS Albany, NY

Home | Current Version | Previous Version | Graphics & Text | Print | Product List | Glossary Off
Versions: 1 2 3 4 5 6 7 8 9 10 11 12 13 14 15 16 17 18 19 20 21 22 23 24 25 26 27

000
ASUS41 KALY 210110
RWRALY

NEW YORK STATE HOURLY WEATHER ROUNDUP
NATIONAL WEATHER SERVICE ALBANY NY
900 PM EDT FRI APR 20 2018

NOTE: "FAIR" INDICATES FEW OR NO CLOUDS BELOW 12,000 FEET WITH NO
SIGNIFICANT WEATHER AND/OR NO OBSTRUCTIONS TO VISIBILITY.

NYZ032-033-038>043-046>054-057>066-NYZ062>081-082-084-210200-
EAST


CITY           SKY/WX    TMP DP  RH WIND       PRES   REMARKS
ALBANY         FAIR      37  24  59 W9        30.35R WCI  30
GLENS FALLS    FAIR      37  25  61 W7        30.31R WCI  32
POUGHKEEPSIE   CLOUDY    41  22  46 NW10G18   30.34R
NEWBURGH       PTCLDY    39  25  56 NW9       30.35R WCI  33
MONTGOMERY     FAIR      39  23  52 N14G20    30.34R WCI  31
WHITE PLAINS   FAIR      40  22  48 NW14      30.31R WCI  32
ISLIP          FAIR      44  26  49 NW16      30.30R
NEW YORK CITY  FAIR      44  24  45 NW16      30.33R
CENTRAL PARK   FAIR      43  22  43 VRB5      30.35R
$$

NYZ005>009-017-018-044>046-055-056-210200-
CENTRAL


CITY           SKY/WX    TMP DP  RH WIND       PRES   REMARKS
FULTON         FAIR      38  25  59 W10       30.37R WCI  31
SYRACUSE       FAIR      38  23  55 W10       30.38R WCI  31
ROME           FAIR      32  24  72 NW5       30.38R WCI  27
ELMIRA         FAIR      34  25  69 W3        30.38R
BINGHAMTON     FAIR      34  21  59 NW7       30.32R WCI  28
MONTICELLO     FAIR      33  22  63 NW5       30.32S WCI  29
$$

NYZ026>034-041>043-087-210200-
NORTH


CITY           SKY/WX    TMP DP  RH WIND       PRES   REMARKS
WATERTOWN      FAIR      35  30  82 S5        30.35R WCI  31
FORT DRUM      NOT AVBL
OGDENSBURG     MOCLDY    43  28  56 W5        30.32R
MASSENA        FAIR      43  25  49 NW3       30.31R
SARANAC LAKE   CLOUDY    36  25  64 VRB3      30.24R
PLATTSBURGH    CLOUDY    43  26  51 NW7       30.26R
$$

NYZ001>004-010>016-019>021-085-210200-
WEST


CITY           SKY/WX    TMP DP  RH WIND       PRES   REMARKS
NIAGARA FALLS  FAIR      40  22  48 N3        30.42R
BUFFALO        FAIR      36  31  82 SW7       30.43R WCI  30
DUNKIRK        FAIR      37  29  72 SW9       30.44R WCI  30
JAMESTOWN      FAIR      36  23  59 W8        30.40R WCI  30
WELLSVILLE     FAIR      34  24  67 NW8       30.38R WCI  27
ROCHESTER      FAIR      40  24  53 NW7       30.40R
PENN YAN       FAIR      39  23  52 W6        30.38R WCI  35
$$

             KEY
       WCI = WIND CHILL INDEX
       VSB = VISIBILITY
       HX  = HEAT INDEX
$$




USA.gov is the U.S. government's official web portal to all federal, state and local government web resources and services.